Regional Weather Roundup
Issued by NWS

Home | Current Version | Previous Version | Text Only | Print | Product List | Glossary Off
Versions: 1 2 3 4 5 6 7 8 9 10 11 12 13 14 15 16 17 18 19 20 21 22 23 24 25 26 27 28 29 30 31 32 33 34 35 36 37 38 39 40 41 42 43 44 45 46 47 48 49 50

000
ASUS45 KBOU 181907
RWRCO

WEATHER ROUNDUP FOR COLORADO
NATIONAL WEATHER SERVICE DENVER/BOULDER CO
100 PM MDT SAT APR 18 2015

NOTE: "FAIR" INDICATES FEW OR NO CLOUDS BELOW 12000 FEET WITH NO
SIGNIFICANT WEATHER AND/OR OBSTRUCTIONS TO VISIBILITY.

COZ001>005-013-030-031-182000-
...NORTHWEST COLORADO...

CITY           SKY/WX    TMP DP  RH WIND       PRES   REMARKS
CRAIG          LGT SNOW  34  32  92 CALM      29.98S FOG
HAYDEN         CLOUDY    34  30  86 CALM      29.97F VSB 1
MEEKER         HVY SNOW  34  33  96 CALM      29.98F VSB 1/4
MOUNT WERNER   NOT AVBL
STEAMBOAT SPGS CLOUDY    32  30  91 CALM      29.97S
WALDEN         CLOUDY    32  28  86 CALM      29.94F
$$

COZ006>008-011-182000-
...WEST CENTRAL VALLEYS...

CITY           SKY/WX    TMP DP  RH WIND       PRES   REMARKS
GRAND JUNCTION CLOUDY    39  36  89 SE3       30.01F
MONTROSE       LGT RAIN  39  36  89 SE12      30.02F
EAGLE          LGT SNOW  37  30  75 CALM      30.01F FOG
RIFLE          SNOW      34  32  92 E3        30.01F VSB 1/2
DELTA          CLOUDY    39  36  88 N5        30.03F
NUCLA          CLOUDY    39  34  81 CALM      30.08S
$$

COZ017>023-064>068-182000-
...SOUTHWEST COLORADO...

CITY           SKY/WX    TMP DP  RH WIND       PRES   REMARKS
DURANGO        CLOUDY    41  33  73 S13       29.99F
CORTEZ         CLOUDY    45  36  70 W12       30.03S
PAGOSA SPRINGS CLOUDY    43  22  43 SW10      29.97F
TELLURIDE      LGT SNOW  29  26  90 CALM      30.04F
WOLF CREEK PAS LGT SNOW  21  18  86 SW12      30.03S VSB 1   WCI   9
$$

COZ009-010-012-014-032>034-037-058>063-182000-
...CENTRAL COLORADO...

CITY           SKY/WX    TMP DP  RH WIND       PRES   REMARKS
ASPEN          LGT SNOW  31  27  85 N5        29.97S FOG     WCI  26
BUENA VISTA    PTSUNNY   37  22  53 CALM      29.93F
COPPER MTN     CLOUDY    27  19  74 W18       29.95S WCI  13
BERTHOUD PASS  SNOW      18  10  73 NE5       29.97S VSB<1/4 WCI  11
COTTONWOOD PAS CLOUDY    36  21  55 CALM      29.94F
GUNNISON       CLOUDY    30  25  80 E5        30.02F WCI  25
KREMMLING      CLOUDY    37  28  70 W10       29.96F
LEADVILLE      LGT SNOW  28  19  69 N8        29.93S WCI  20
MONARCH PASS   CLOUDY    18  14  86 MISG      30.06S
SALIDA         CLOUDY    43  24  48 N6        29.99F
SUNLIGHT       LGT SNOW N/A N/A N/A CALM      30.02S VSB 3/4
WILKERSON PASS CLOUDY    27  21  80 NW3       29.96F FOG
$$

COZ069>075-182000-
...SAN LUIS VALLEY/SANGRE DE CRISTO MOUNTAINS...

CITY           SKY/WX    TMP DP  RH WIND       PRES   REMARKS
ALAMOSA        MOSUNNY   45  17  32 W6        29.92F
LA VETA PASS   PTSUNNY   36  19  51 S7        29.93F
SAGUACHE       PTSUNNY   41  27  56 NW23G29   29.94F
$$

COZ035-036-038>040-182000-
...NORTHERN COLORADO FRONT RANGE...

CITY           SKY/WX    TMP DP  RH WIND       PRES   REMARKS
DENVER INTL AP PTSUNNY   50  34  54 VRB7      29.90F
DMNS CITY PARK   N/A     52  33  48 E7G15     29.89F
AURORA         PTSUNNY   50  34  54 NE10      29.90F
FRONT RANGE AP NOT AVBL
ERIE MUNI ARPT PTSUNNY   49  36  62 N3        29.90F
BOULDER MUN AP MOSUNNY   50  34  53 E3        29.90F
CENTENNIAL     MOSUNNY   48  30  49 CALM      29.89F
BROOMFIELD     MOSUNNY   48  32  53 W5        29.91F
FORT COLLINS   CLOUDY    50  36  57 N7        29.92S
LONGMONT       MOSUNNY   56  34  42 CALM      29.92F
$$

COZ041-046-047-076>085-087-088-182000-
...PIKES PEAK/PALMER DIVIDE AND SOUTHERN FOOTHILLS...

CITY           SKY/WX    TMP DP  RH WIND       PRES   REMARKS
COLO. SPRINGS  LGT RAIN  41  32  70 SW15      29.88F
A. F. ACADEMY  MOSUNNY   46  26  45 N16       29.87F
ELLICOTT       PTSUNNY  N/A N/A N/A NE17G29   29.86F
FALCON         PTSUNNY   44  27  51 N15G23    29.89F
FORT CARSON    PTSUNNY   43  31  63 W13       29.87F THUNDER
LIMON          CLOUDY    43  39  86 NW15      29.90F
MONUMENT HILL  PTSUNNY   41  30  65 N7        29.89F
TRINIDAD       MOSUNNY   52  18  26 VRB3      29.87F
$$

COZ042>045-048>051-090-091-182000-
...NORTHEAST COLORADO...

CITY           SKY/WX    TMP DP  RH WIND       PRES   REMARKS
GREELEY ARPT   PTSUNNY   52  36  54 N6        29.91F
AKRON          CLOUDY    46  40  79 W17       29.89F
BURLINGTON     MOSUNNY   53  42  66 CALM      29.86F
WRAY           CLOUDY    58  43  57 SE10      29.87F
STERLING       CLOUDY    52  43  71 N5        29.88F
HOLYOKE        MOSUNNY   63  45  51 E9        29.86F
FORT MORGAN    LGT RAIN  41  37  84 S22G28    29.93S
$$

COZ086-089-092>099-182000-
...SOUTHEAST COLORADO...

CITY           SKY/WX    TMP DP  RH WIND       PRES   REMARKS
PUEBLO         MOSUNNY   53  30  41 CALM      29.86F
LA JUNTA       PTSUNNY   56  33  42 N8        29.86F
LAMAR          PTSUNNY   58  31  35 NW9       29.84F
SPRINGFIELD      N/A     46  36  68 SW10G17   29.91R
$$


USA.gov is the U.S. government's official web portal to all federal, state and local government web resources and services.